Stündliche Wetter Ábidos

Heute, 23 Juni, Mittwoch

Zeit Temperatur Niederschläge Wind Luftdruck Luftfeuchtigkeit
00:00 +25°C° 0 mm 2 m/S 758 mmHg 90%
01:00 +25°C° 0 mm 1 m/S 758 mmHg 90%
02:00 +25°C° 0 mm 1 m/S 758 mmHg 90%
03:00 +24°C° 0 mm 1 m/S 758 mmHg 90%
04:00 +24°C° 0 mm 1 m/S 758 mmHg 91%
05:00 +24°C° 0 mm 1 m/S 758 mmHg 91%
06:00 +26°C° 0 mm 1 m/S 759 mmHg 85%
07:00 +27°C° 0 mm 1 m/S 759 mmHg 79%
08:00 +28°C° 0 mm 1 m/S 759 mmHg 72%
09:00 +30°C° 0 mm 1 m/S 759 mmHg 65%
10:00 +32°C° 0 mm 1 m/S 759 mmHg 58%
11:00 +33°C° 0 mm 1 m/S 759 mmHg 51%
12:00 +35°C° 0 mm 2 m/S 758 mmHg 49%
13:00 +35°C° 0 mm 2 m/S 757 mmHg 47%
14:00 +36°C° 0 mm 2 m/S 757 mmHg 45%
15:00 +34°C° 0 mm 2 m/S 756 mmHg 51%
16:00 +32°C° 0 mm 1 m/S 756 mmHg 56%
17:00 +31°C° 0 mm 1 m/S 756 mmHg 62%
18:00 +30°C° 0.1 mm 1 m/S 757 mmHg 68%
19:00 +28°C° 0.1 mm 1 m/S 757 mmHg 75%
20:00 +27°C° 0.1 mm 1 m/S 758 mmHg 81%
21:00 +26°C° 0.1 mm 1 m/S 758 mmHg 83%
22:00 +26°C° 0.1 mm 1 m/S 758 mmHg 85%
23:00 +26°C° 0.1 mm 1 m/S 758 mmHg 86%

Morgen, 24 Juni, Donnerstag

Zeit Temperatur Niederschläge Wind Luftdruck Luftfeuchtigkeit
00:00 +25°C° 0 mm 1 m/S 758 mmHg 87%
01:00 +25°C° 0 mm 1 m/S 758 mmHg 87%
02:00 +25°C° 0 mm 1 m/S 757 mmHg 87%
03:00 +25°C° 0 mm 1 m/S 757 mmHg 88%
04:00 +24°C° 0 mm 1 m/S 757 mmHg 89%
05:00 +24°C° 0 mm 1 m/S 758 mmHg 90%
06:00 +26°C° 0 mm 1 m/S 758 mmHg 84%
07:00 +27°C° 0 mm 1 m/S 759 mmHg 77%
08:00 +28°C° 0 mm 1 m/S 759 mmHg 71%
09:00 +30°C° 0 mm 1 m/S 759 mmHg 64%
10:00 +32°C° 0 mm 1 m/S 759 mmHg 57%
11:00 +35°C° 0 mm 2 m/S 759 mmHg 50%
12:00 +35°C° 0 mm 2 m/S 758 mmHg 48%
13:00 +36°C° 0 mm 2 m/S 757 mmHg 45%
14:00 +36°C° 0 mm 2 m/S 756 mmHg 43%
15:00 +35°C° 0 mm 2 m/S 756 mmHg 49%
16:00 +34°C° 0 mm 2 m/S 756 mmHg 54%
17:00 +31°C° 0 mm 1 m/S 756 mmHg 59%
18:00 +30°C° 0 mm 1 m/S 756 mmHg 63%
19:00 +29°C° 0 mm 1 m/S 757 mmHg 67%
20:00 +28°C° 0 mm 1 m/S 757 mmHg 71%
21:00 +27°C° 0 mm 1 m/S 757 mmHg 73%
22:00 +27°C° 0 mm 1 m/S 758 mmHg 76%
23:00 +26°C° 0 mm 1 m/S 758 mmHg 78%

übermorgen, 25 Juni, Freitag

Zeit Temperatur Niederschläge Wind Luftdruck Luftfeuchtigkeit
00:00 +26°C° 0 mm 1 m/S 757 mmHg 80%
01:00 +25°C° 0 mm 1 m/S 757 mmHg 82%
02:00 +25°C° 0 mm 1 m/S 757 mmHg 85%
03:00 +25°C° 0 mm 1 m/S 757 mmHg 85%
04:00 +25°C° 0 mm 1 m/S 757 mmHg 86%
05:00 +25°C° 0 mm 1 m/S 757 mmHg 87%
06:00 +26°C° 0 mm 2 m/S 758 mmHg 81%
07:00 +27°C° 0 mm 2 m/S 758 mmHg 75%
08:00 +29°C° 0 mm 2 m/S 759 mmHg 69%
09:00 +30°C° 0 mm 2 m/S 758 mmHg 63%
10:00 +32°C° 0 mm 2 m/S 758 mmHg 56%
11:00 +35°C° 0 mm 2 m/S 758 mmHg 50%
12:00 +35°C° 0 mm 2 m/S 757 mmHg 48%
13:00 +36°C° 0 mm 2 m/S 756 mmHg 46%
14:00 +36°C° 0 mm 2 m/S 756 mmHg 44%
15:00 +35°C° 0 mm 2 m/S 756 mmHg 50%
16:00 +32°C° 0 mm 1 m/S 756 mmHg 56%
17:00 +31°C° 0 mm 1 m/S 756 mmHg 62%
18:00 +30°C° 0 mm 1 m/S 756 mmHg 66%
19:00 +29°C° 0 mm 1 m/S 756 mmHg 70%
20:00 +28°C° 0 mm 1 m/S 757 mmHg 74%
21:00 +27°C° 0.1 mm 1 m/S 757 mmHg 78%
22:00 +26°C° 0.1 mm 1 m/S 757 mmHg 81%
23:00 +26°C° 0.1 mm 1 m/S 758 mmHg 85%

26 Juni, Samstag

Zeit Temperatur Niederschläge Wind Luftdruck Luftfeuchtigkeit
00:00 +25°C° 0.2 mm 1 m/S 757 mmHg 87%
01:00 +25°C° 0.2 mm 1 m/S 757 mmHg 89%
02:00 +25°C° 0.2 mm 2 m/S 757 mmHg 91%
03:00 +24°C° 0.1 mm 1 m/S 757 mmHg 92%
04:00 +24°C° 0.1 mm 1 m/S 757 mmHg 93%
05:00 +24°C° 0.1 mm 1 m/S 757 mmHg 95%
06:00 +25°C° 0 mm 1 m/S 758 mmHg 89%
07:00 +26°C° 0 mm 1 m/S 758 mmHg 84%
08:00 +27°C° 0 mm 1 m/S 759 mmHg 79%
09:00 +30°C° 0 mm 1 m/S 758 mmHg 69%
10:00 +32°C° 0 mm 1 m/S 758 mmHg 59%
11:00 +35°C° 0 mm 2 m/S 758 mmHg 50%
12:00 +35°C° 0 mm 2 m/S 757 mmHg 48%
13:00 +35°C° 0 mm 2 m/S 756 mmHg 47%
14:00 +36°C° 0 mm 2 m/S 756 mmHg 45%
15:00 +35°C° 0 mm 2 m/S 756 mmHg 50%
16:00 +34°C° 0 mm 2 m/S 756 mmHg 54%
17:00 +32°C° 0 mm 2 m/S 756 mmHg 59%
18:00 +30°C° 0.1 mm 1 m/S 756 mmHg 66%
19:00 +28°C° 0.1 mm 1 m/S 757 mmHg 72%
20:00 +27°C° 0.1 mm 1 m/S 757 mmHg 79%
21:00 +26°C° 0 mm 1 m/S 757 mmHg 81%
22:00 +26°C° 0 mm 1 m/S 758 mmHg 82%
23:00 +26°C° 0 mm 1 m/S 758 mmHg 84%

27 Juni, Sonntag

Zeit Temperatur Niederschläge Wind Luftdruck Luftfeuchtigkeit
00:00 +25°C° 0 mm 1 m/S 757 mmHg 85%
01:00 +25°C° 0 mm 1 m/S 757 mmHg 86%
02:00 +25°C° 0 mm 1 m/S 757 mmHg 87%
03:00 +25°C° 0 mm 1 m/S 757 mmHg 89%
04:00 +25°C° 0 mm 1 m/S 758 mmHg 90%
05:00 +24°C° 0 mm 1 m/S 758 mmHg 91%
06:00 +26°C° 0 mm 1 m/S 758 mmHg 85%
07:00 +27°C° 0 mm 1 m/S 759 mmHg 79%
08:00 +28°C° 0 mm 1 m/S 759 mmHg 73%
09:00 +30°C° 0 mm 2 m/S 759 mmHg 65%
10:00 +32°C° 0 mm 2 m/S 759 mmHg 57%
11:00 +35°C° 0 mm 2 m/S 759 mmHg 49%
12:00 +35°C° 0 mm 2 m/S 758 mmHg 47%
13:00 +36°C° 0 mm 2 m/S 757 mmHg 45%
14:00 +36°C° 0 mm 2 m/S 756 mmHg 43%
15:00 +35°C° 0 mm 2 m/S 756 mmHg 47%
16:00 +34°C° 0 mm 2 m/S 756 mmHg 52%
17:00 +32°C° 0 mm 2 m/S 756 mmHg 57%
18:00 +31°C° 0 mm 2 m/S 756 mmHg 63%
19:00 +29°C° 0 mm 2 m/S 757 mmHg 70%
20:00 +27°C° 0 mm 2 m/S 758 mmHg 76%
21:00 +27°C° 0.1 mm 1 m/S 758 mmHg 80%
22:00 +26°C° 0.1 mm 1 m/S 758 mmHg 83%
23:00 +26°C° 0.1 mm 1 m/S 758 mmHg 87%

28 Juni, Montag

Zeit Temperatur Niederschläge Wind Luftdruck Luftfeuchtigkeit
00:00 +26°C° 0 mm 1 m/S 758 mmHg 87%
01:00 +26°C° 0 mm 1 m/S 758 mmHg 87%
02:00 +26°C° 0 mm 1 m/S 758 mmHg 87%
03:00 +25°C° 0 mm 1 m/S 758 mmHg 88%
04:00 +25°C° 0 mm 1 m/S 758 mmHg 88%
05:00 +25°C° 0 mm 1 m/S 759 mmHg 89%
06:00 +26°C° 0 mm 1 m/S 759 mmHg 83%
07:00 +27°C° 0 mm 1 m/S 760 mmHg 77%
08:00 +29°C° 0 mm 2 m/S 760 mmHg 71%
09:00 +30°C° 0 mm 2 m/S 760 mmHg 66%
10:00 +31°C° 0 mm 2 m/S 760 mmHg 61%
11:00 +32°C° 0 mm 2 m/S 760 mmHg 56%
12:00 +32°C° 0.1 mm 2 m/S 759 mmHg 55%
13:00 +34°C° 0.1 mm 2 m/S 758 mmHg 54%
14:00 +34°C° 0.1 mm 2 m/S 758 mmHg 53%
15:00 +32°C° 0 mm 2 m/S 758 mmHg 57%
16:00 +31°C° 0 mm 1 m/S 757 mmHg 62%
17:00 +30°C° 0 mm 1 m/S 757 mmHg 67%
18:00 +29°C° 0.1 mm 1 m/S 758 mmHg 72%
19:00 +28°C° 0.1 mm 1 m/S 758 mmHg 78%
20:00 +27°C° 0.1 mm 1 m/S 759 mmHg 83%
21:00 +26°C° 0.2 mm 1 m/S 759 mmHg 85%
22:00 +26°C° 0.2 mm 1 m/S 759 mmHg 87%
23:00 +25°C° 0.2 mm 1 m/S 759 mmHg 89%
Mehr zeigen

Wir brauchen deine Erlaubnis

Meteoprog und unser Service Anbieter werden persönliche Daten aufbewahren, so wie Cookies, Geräte Bezeichnung oder ähnliche Technologien von deinem Gerät und Prozess, so wie Persönliche Daten Inhalte und Werbungen, genauso wie social Media und den Verkehr zu analysieren.

  • Aufbewahrung und/oder Zugang zu deiner Geräte Informationen.

    Cookies, Geräte Bezeichnung oder andere Informationen, können aufbewahrt oder Zugang zu deinem Gerät erhalten, für den Grund, der oben angegeben wird.

  • Personalisierte Werbung und Inhalte, Messungen, Einblick in das Publikum und Produkt Entwicklung.

    Werbungen und Inhalte können personalisiert werden, basierend auf ein Profil. Mehr Daten können besser personalisierte Werbungen und Inhalte hinzufügen. Werbung und Inhalte können gezeigt und gemessen werden. Einblicke über das Publikum, welche die Werbung gesehen haben und den Inhalt, können abgeleitet werden. So wie Daten können genutzt werden, um es zu verbessern oder die Benutzer Erfahrung zu verbessern das System und die Software.

Wenn du “Ich stimme zu” klickst, erlaubst du uns, die Cookies zu benutzen die Geräte Bezeichnung, den Web oder ähnliche Technologien zu benutzen. Deine Settings, können in deinem Gerät bei deinem Browser geändert werden.

Für den bestimmten Zweck, berechtigten Interessen beruhen darauf, mehr als auf den Inhalt. Du kannst mehr darüber in unseren Privaten und Cookie Politik lesen.